owner,sensor,date,latitude,longitude,vertical_datum,sea_water_practical_salinity,qcFlag 
SCCF RECON,ioos:station:SCCF:11:1,2019-10-01T04:00:00Z,26.4679,-82.0631,2.18,30.62,11111222 
SCCF RECON,ioos:station:SCCF:11:1,2019-10-01T05:00:00Z,26.4679,-82.0631,2.297,31.27,11111222 
SCCF RECON,ioos:station:SCCF:11:1,2019-10-01T06:00:00Z,26.4679,-82.0631,2.36,31.57,11111222 
SCCF RECON,ioos:station:SCCF:11:1,2019-10-01T07:00:00Z,26.4679,-82.0631,2.39,31.75,11111222 
SCCF RECON,ioos:station:SCCF:11:1,2019-10-01T08:00:00Z,26.4679,-82.0631,2.32,31.46,11111222 
SCCF RECON,ioos:station:SCCF:11:1,2019-10-01T09:00:00Z,26.4679,-82.0631,2.21,31.13,11111222 
SCCF RECON,ioos:station:SCCF:11:1,2019-10-01T10:00:00Z,26.4679,-82.0631,2.089,30.64,11111222 
SCCF RECON,ioos:station:SCCF:11:1,2019-10-01T11:00:00Z,26.4679,-82.0631,1.95,30.34,11111222 
SCCF RECON,ioos:station:SCCF:11:1,2019-10-01T12:00:00Z,26.4679,-82.0631,1.81,30.06,11111222 
SCCF RECON,ioos:station:SCCF:11:1,2019-10-01T13:00:00Z,26.4679,-82.0631,1.681,30.06,11111222 
SCCF RECON,ioos:station:SCCF:11:1,2019-10-01T14:00:00Z,26.4679,-82.0631,1.611,30.74,11111222 
SCCF RECON,ioos:station:SCCF:11:1,2019-10-01T15:00:00Z,26.4679,-82.0631,1.68,30.32,11111222 
SCCF RECON,ioos:station:SCCF:11:1,2019-10-01T16:00:00Z,26.4679,-82.0631,1.861,30.71,11111222 
SCCF RECON,ioos:station:SCCF:11:1,2019-10-01T17:00:00Z,26.4679,-82.0631,2.05,30.64,11111222 
SCCF RECON,ioos:station:SCCF:11:1,2019-10-01T18:00:00Z,26.4679,-82.0631,2.18,30.94,11111222 
SCCF RECON,ioos:station:SCCF:11:1,2019-10-01T19:00:00Z,26.4679,-82.0631,2.289,31.07,11111222 
SCCF RECON,ioos:station:SCCF:11:1,2019-10-01T20:00:00Z,26.4679,-82.0631,2.34,31.51,11111222 
SCCF RECON,ioos:station:SCCF:11:1,2019-10-01T21:00:00Z,26.4679,-82.0631,2.31,32.07,11111222 
SCCF RECON,ioos:station:SCCF:11:1,2019-10-01T22:00:00Z,26.4679,-82.0631,2.232,31.64,11111222 
SCCF RECON,ioos:station:SCCF:11:1,2019-10-01T23:00:00Z,26.4679,-82.0631,2.17,30.91,11111222 
SCCF RECON,ioos:station:SCCF:11:1,2019-10-02T04:00:00Z,26.4679,-82.0631,2.157,30.61,11111222 
SCCF RECON,ioos:station:SCCF:11:1,2019-10-02T05:00:00Z,26.4679,-82.0631,2.31,31.44,11111222 
SCCF RECON,ioos:station:SCCF:11:1,2019-10-02T06:00:00Z,26.4679,-82.0631,2.371,32.04,11111222 
SCCF RECON,ioos:station:SCCF:11:1,2019-10-02T07:00:00Z,26.4679,-82.0631,2.41,32.1,11111222 
SCCF RECON,ioos:station:SCCF:11:1,2019-10-02T08:00:00Z,26.4679,-82.0631,2.4,32.68,11111222 
SCCF RECON,ioos:station:SCCF:11:1,2019-10-02T09:00:00Z,26.4679,-82.0631,2.361,32.11,11111222 
SCCF RECON,ioos:station:SCCF:11:1,2019-10-02T10:00:00Z,26.4679,-82.0631,2.247,31.59,11111222 
SCCF RECON,ioos:station:SCCF:11:1,2019-10-02T11:00:00Z,26.4679,-82.0631,2.087,30.97,11111222 
SCCF RECON,ioos:station:SCCF:11:1,2019-10-02T12:00:00Z,26.4679,-82.0631,1.95,30.59,11111222 
SCCF RECON,ioos:station:SCCF:11:1,2019-10-02T13:00:00Z,26.4679,-82.0631,1.822,30.44,11111222 
SCCF RECON,ioos:station:SCCF:11:1,2019-10-02T14:00:00Z,26.4679,-82.0631,1.711,30.47,11111222 
SCCF RECON,ioos:station:SCCF:11:1,2019-10-02T15:00:00Z,26.4679,-82.0631,1.669,31.76,11111222 
SCCF RECON,ioos:station:SCCF:11:1,2019-10-02T16:00:00Z,26.4679,-82.0631,1.741,31.04,11111222 
SCCF RECON,ioos:station:SCCF:11:1,2019-10-02T17:00:00Z,26.4679,-82.0631,1.907,30.87,11111222 
SCCF RECON,ioos:station:SCCF:11:1,2019-10-02T18:00:00Z,26.4679,-82.0631,2.05,31.19,11111222 
SCCF RECON,ioos:station:SCCF:11:1,2019-10-02T19:00:00Z,26.4679,-82.0631,2.133,31.43,11111222 
SCCF RECON,ioos:station:SCCF:11:1,2019-10-02T20:00:00Z,26.4679,-82.0631,2.19,31.42,11111222 
SCCF RECON,ioos:station:SCCF:11:1,2019-10-02T21:00:00Z,26.4679,-82.0631,2.25,31.45,11111222 
SCCF RECON,ioos:station:SCCF:11:1,2019-10-02T22:00:00Z,26.4679,-82.0631,2.233,31.92,11111222 
SCCF RECON,ioos:station:SCCF:11:1,2019-10-02T23:00:00Z,26.4679,-82.0631,2.21,31.84,11111222 
SCCF RECON,ioos:station:SCCF:11:1,2019-10-03T04:00:00Z,26.4679,-82.0631,2.148,31.38,11111222 
SCCF RECON,ioos:station:SCCF:11:1,2019-10-03T05:00:00Z,26.4679,-82.0631,2.26,32.24,11111222 
SCCF RECON,ioos:station:SCCF:11:1,2019-10-03T06:00:00Z,26.4679,-82.0631,2.36,32.93,11111222 
SCCF RECON,ioos:station:SCCF:11:1,2019-10-03T07:00:00Z,26.4679,-82.0631,2.42,33.26,11111222 
SCCF RECON,ioos:station:SCCF:11:1,2019-10-03T08:00:00Z,26.4679,-82.0631,2.44,33.39,11111222 
SCCF RECON,ioos:station:SCCF:11:1,2019-10-03T09:00:00Z,26.4679,-82.0631,2.46,33.41,11111222 
SCCF RECON,ioos:station:SCCF:11:1,2019-10-03T10:00:00Z,26.4679,-82.0631,2.43,33.47,11111222 
SCCF RECON,ioos:station:SCCF:11:1,2019-10-03T11:00:00Z,26.4679,-82.0631,2.31,32.6,11111222 
SCCF RECON,ioos:station:SCCF:11:1,2019-10-03T12:00:00Z,26.4679,-82.0631,2.18,31.75,11111222 
SCCF RECON,ioos:station:SCCF:11:1,2019-10-03T13:00:00Z,26.4679,-82.0631,2.049,31.35,11111222 
SCCF RECON,ioos:station:SCCF:11:1,2019-10-03T14:00:00Z,26.4679,-82.0631,1.928,31.14,11111222 
SCCF RECON,ioos:station:SCCF:11:1,2019-10-03T15:00:00Z,26.4679,-82.0631,1.82,31.07,11111222 
SCCF RECON,ioos:station:SCCF:11:1,2019-10-03T16:00:00Z,26.4679,-82.0631,1.772,31.47,11111222 
SCCF RECON,ioos:station:SCCF:11:1,2019-10-03T17:00:00Z,26.4679,-82.0631,1.85,31.64,11111222 
SCCF RECON,ioos:station:SCCF:11:1,2019-10-03T18:00:00Z,26.4679,-82.0631,2.0,31.87,11111222 
SCCF RECON,ioos:station:SCCF:11:1,2019-10-03T19:00:00Z,26.4679,-82.0631,2.11,31.7,11111222 
SCCF RECON,ioos:station:SCCF:11:1,2019-10-03T20:00:00Z,26.4679,-82.0631,2.18,31.79,11111222 
SCCF RECON,ioos:station:SCCF:11:1,2019-10-03T21:00:00Z,26.4679,-82.0631,2.22,32.08,11111222 
SCCF RECON,ioos:station:SCCF:11:1,2019-10-03T22:00:00Z,26.4679,-82.0631,2.26,32.32,11111222 
SCCF RECON,ioos:station:SCCF:11:1,2019-10-03T23:00:00Z,26.4679,-82.0631,2.273,32.38,11111222 
SCCF RECON,ioos:station:SCCF:11:1,2019-10-04T04:00:00Z,26.4679,-82.0631,2.17,32.27,11111222 
SCCF RECON,ioos:station:SCCF:11:1,2019-10-04T05:00:00Z,26.4679,-82.0631,2.19,32.14,11111222 
SCCF RECON,ioos:station:SCCF:11:1,2019-10-04T06:00:00Z,26.4679,-82.0631,2.283,33.13,11111222 
SCCF RECON,ioos:station:SCCF:11:1,2019-10-04T07:00:00Z,26.4679,-82.0631,2.37,33.23,11111222 
SCCF RECON,ioos:station:SCCF:11:1,2019-10-04T08:00:00Z,26.4679,-82.0631,2.43,33.59,11111222 
SCCF RECON,ioos:station:SCCF:11:1,2019-10-04T09:00:00Z,26.4679,-82.0631,2.45,33.57,11111222 
SCCF RECON,ioos:station:SCCF:11:1,2019-10-04T10:00:00Z,26.4679,-82.0631,2.432,33.62,11111222 
SCCF RECON,ioos:station:SCCF:11:1,2019-10-04T11:00:00Z,26.4679,-82.0631,2.39,33.6,11111222 
SCCF RECON,ioos:station:SCCF:11:1,2019-10-04T12:00:00Z,26.4679,-82.0631,2.31,33.15,11111222 
SCCF RECON,ioos:station:SCCF:11:1,2019-10-04T13:00:00Z,26.4679,-82.0631,2.196,32.3,11111222 
SCCF RECON,ioos:station:SCCF:11:1,2019-10-04T14:00:00Z,26.4679,-82.0631,2.06,31.81,11111222 
SCCF RECON,ioos:station:SCCF:11:1,2019-10-04T15:00:00Z,26.4679,-82.0631,1.95,31.68,11111222 
SCCF RECON,ioos:station:SCCF:11:1,2019-10-04T16:00:00Z,26.4679,-82.0631,1.868,31.65,11111222 
SCCF RECON,ioos:station:SCCF:11:1,2019-10-04T17:00:00Z,26.4679,-82.0631,1.83,31.86,11111222 
SCCF RECON,ioos:station:SCCF:11:1,2019-10-04T18:00:00Z,26.4679,-82.0631,1.86,32.03,11111222 
SCCF RECON,ioos:station:SCCF:11:1,2019-10-04T19:00:00Z,26.4679,-82.0631,1.96,32.0,11111222 
SCCF RECON,ioos:station:SCCF:11:1,2019-10-04T20:00:00Z,26.4679,-82.0631,2.076,32.72,11111222 
SCCF RECON,ioos:station:SCCF:11:1,2019-10-04T21:00:00Z,26.4679,-82.0631,2.141,32.89,11111222 
SCCF RECON,ioos:station:SCCF:11:1,2019-10-04T22:00:00Z,26.4679,-82.0631,2.181,32.27,11111222 
SCCF RECON,ioos:station:SCCF:11:1,2019-10-04T23:00:00Z,26.4679,-82.0631,2.21,32.09,11111222 
SCCF RECON,ioos:station:SCCF:11:1,2019-10-05T04:00:00Z,26.4679,-82.0631,2.23,32.44,11111222 
SCCF RECON,ioos:station:SCCF:11:1,2019-10-05T05:00:00Z,26.4679,-82.0631,2.237,32.08,11111222 
SCCF RECON,ioos:station:SCCF:11:1,2019-10-05T06:00:00Z,26.4679,-82.0631,2.23,32.08,11111222 
SCCF RECON,ioos:station:SCCF:11:1,2019-10-05T07:00:00Z,26.4679,-82.0631,2.25,32.12,11111222 
SCCF RECON,ioos:station:SCCF:11:1,2019-10-05T08:00:00Z,26.4679,-82.0631,2.29,32.12,11111222 
SCCF RECON,ioos:station:SCCF:11:1,2019-10-05T09:00:00Z,26.4679,-82.0631,2.347,32.19,11111222 
SCCF RECON,ioos:station:SCCF:11:1,2019-10-05T10:00:00Z,26.4679,-82.0631,2.38,32.17,11111222 
SCCF RECON,ioos:station:SCCF:11:1,2019-10-05T11:00:00Z,26.4679,-82.0631,2.373,32.32,11111222 
SCCF RECON,ioos:station:SCCF:11:1,2019-10-05T12:00:00Z,26.4679,-82.0631,2.337,32.3,11111222 
SCCF RECON,ioos:station:SCCF:11:1,2019-10-05T13:00:00Z,26.4679,-82.0631,2.25,32.13,11111222 
SCCF RECON,ioos:station:SCCF:11:1,2019-10-05T14:00:00Z,26.4679,-82.0631,2.147,32.07,11111222 
SCCF RECON,ioos:station:SCCF:11:1,2019-10-05T15:00:00Z,26.4679,-82.0631,2.05,31.94,11111222 
SCCF RECON,ioos:station:SCCF:11:1,2019-10-05T16:00:00Z,26.4679,-82.0631,1.94,31.82,11111222 
SCCF RECON,ioos:station:SCCF:11:1,2019-10-05T17:00:00Z,26.4679,-82.0631,1.849,31.77,11111222 
SCCF RECON,ioos:station:SCCF:11:1,2019-10-05T18:00:00Z,26.4679,-82.0631,1.798,31.9,11111222 
SCCF RECON,ioos:station:SCCF:11:1,2019-10-05T19:00:00Z,26.4679,-82.0631,1.812,32.02,11111222 
SCCF RECON,ioos:station:SCCF:11:1,2019-10-05T20:00:00Z,26.4679,-82.0631,1.94,31.93,11111222 
SCCF RECON,ioos:station:SCCF:11:1,2019-10-05T21:00:00Z,26.4679,-82.0631,2.041,31.97,11111222 
SCCF RECON,ioos:station:SCCF:11:1,2019-10-05T22:00:00Z,26.4679,-82.0631,2.1,31.75,11111222 
SCCF RECON,ioos:station:SCCF:11:1,2019-10-05T23:00:00Z,26.4679,-82.0631,2.16,31.49,11111222 
SCCF RECON,ioos:station:SCCF:11:1,2019-10-06T04:00:00Z,26.4679,-82.0631,2.2,31.99,11111222 
SCCF RECON,ioos:station:SCCF:11:1,2019-10-06T05:00:00Z,26.4679,-82.0631,2.19,31.87,11111222 
SCCF RECON,ioos:station:SCCF:11:1,2019-10-06T06:00:00Z,26.4679,-82.0631,2.17,31.9,11111222 
SCCF RECON,ioos:station:SCCF:11:1,2019-10-06T07:00:00Z,26.4679,-82.0631,2.14,31.85,11111222 
SCCF RECON,ioos:station:SCCF:11:1,2019-10-06T08:00:00Z,26.4679,-82.0631,2.19,31.91,11111222 
SCCF RECON,ioos:station:SCCF:11:1,2019-10-06T09:00:00Z,26.4679,-82.0631,2.29,32.08,11111222 
SCCF RECON,ioos:station:SCCF:11:1,2019-10-06T10:00:00Z,26.4679,-82.0631,2.35,32.21,11111222 
SCCF RECON,ioos:station:SCCF:11:1,2019-10-06T11:00:00Z,26.4679,-82.0631,2.381,32.56,11111222 
SCCF RECON,ioos:station:SCCF:11:1,2019-10-06T12:00:00Z,26.4679,-82.0631,2.37,32.65,11111222 
SCCF RECON,ioos:station:SCCF:11:1,2019-10-06T13:00:00Z,26.4679,-82.0631,2.313,32.35,11111222 
SCCF RECON,ioos:station:SCCF:11:1,2019-10-06T14:00:00Z,26.4679,-82.0631,2.24,32.12,11111222 
SCCF RECON,ioos:station:SCCF:11:1,2019-10-06T15:00:00Z,26.4679,-82.0631,2.163,31.96,11111222 
SCCF RECON,ioos:station:SCCF:11:1,2019-10-06T16:00:00Z,26.4679,-82.0631,2.051,31.76,11111222 
SCCF RECON,ioos:station:SCCF:11:1,2019-10-06T17:00:00Z,26.4679,-82.0631,1.968,31.71,11111222 
SCCF RECON,ioos:station:SCCF:11:1,2019-10-06T18:00:00Z,26.4679,-82.0631,1.88,31.57,11111222 
SCCF RECON,ioos:station:SCCF:11:1,2019-10-06T19:00:00Z,26.4679,-82.0631,1.82,31.63,11111222 
SCCF RECON,ioos:station:SCCF:11:1,2019-10-06T20:00:00Z,26.4679,-82.0631,1.857,31.85,11111222 
SCCF RECON,ioos:station:SCCF:11:1,2019-10-06T21:00:00Z,26.4679,-82.0631,1.971,31.94,11111222 
SCCF RECON,ioos:station:SCCF:11:1,2019-10-06T22:00:00Z,26.4679,-82.0631,2.089,31.98,11111222 
SCCF RECON,ioos:station:SCCF:11:1,2019-10-06T23:00:00Z,26.4679,-82.0631,2.16,32.04,11111222 
SCCF RECON,ioos:station:SCCF:11:1,2019-10-07T04:00:00Z,26.4679,-82.0631,2.264,32.15,11111222 
SCCF RECON,ioos:station:SCCF:11:1,2019-10-07T05:00:00Z,26.4679,-82.0631,2.23,32.05,11111222 
SCCF RECON,ioos:station:SCCF:11:1,2019-10-07T06:00:00Z,26.4679,-82.0631,2.16,31.9,11111222 
SCCF RECON,ioos:station:SCCF:11:1,2019-10-07T07:00:00Z,26.4679,-82.0631,2.12,31.9,11111222 
SCCF RECON,ioos:station:SCCF:11:1,2019-10-07T08:00:00Z,26.4679,-82.0631,2.129,32.16,11111222 
SCCF RECON,ioos:station:SCCF:11:1,2019-10-07T09:00:00Z,26.4679,-82.0631,2.2,32.12,11111222 
SCCF RECON,ioos:station:SCCF:11:1,2019-10-07T10:00:00Z,26.4679,-82.0631,2.29,32.12,11111222 
SCCF RECON,ioos:station:SCCF:11:1,2019-10-07T11:00:00Z,26.4679,-82.0631,2.34,32.17,11111222 
SCCF RECON,ioos:station:SCCF:11:1,2019-10-07T12:00:00Z,26.4679,-82.0631,2.38,32.21,11111222 
SCCF RECON,ioos:station:SCCF:11:1,2019-10-07T13:00:00Z,26.4679,-82.0631,2.38,32.27,11111222 
SCCF RECON,ioos:station:SCCF:11:1,2019-10-07T15:00:00Z,26.4679,-82.0631,2.29,32.1,11111222 
SCCF RECON,ioos:station:SCCF:11:1,2019-10-07T16:00:00Z,26.4679,-82.0631,2.18,31.96,11111222 
SCCF RECON,ioos:station:SCCF:11:1,2019-10-07T17:00:00Z,26.4679,-82.0631,2.082,31.91,11111222 
SCCF RECON,ioos:station:SCCF:11:1,2019-10-07T18:00:00Z,26.4679,-82.0631,1.989,31.82,11111222 
SCCF RECON,ioos:station:SCCF:11:1,2019-10-07T19:00:00Z,26.4679,-82.0631,1.9,31.78,11111222 
SCCF RECON,ioos:station:SCCF:11:1,2019-10-07T20:00:00Z,26.4679,-82.0631,1.87,32.11,11111222 
SCCF RECON,ioos:station:SCCF:11:1,2019-10-07T21:00:00Z,26.4679,-82.0631,1.88,32.1,11111222 
SCCF RECON,ioos:station:SCCF:11:1,2019-10-07T22:00:00Z,26.4679,-82.0631,1.99,31.97,11111222 
SCCF RECON,ioos:station:SCCF:11:1,2019-10-07T23:00:00Z,26.4679,-82.0631,2.067,31.96,11111222 
SCCF RECON,ioos:station:SCCF:11:1,2019-10-08T04:00:00Z,26.4679,-82.0631,2.36,32.33,11111222 
SCCF RECON,ioos:station:SCCF:11:1,2019-10-08T05:00:00Z,26.4679,-82.0631,2.35,32.53,11111222 
SCCF RECON,ioos:station:SCCF:11:1,2019-10-08T06:00:00Z,26.4679,-82.0631,2.278,32.19,11111222 
SCCF RECON,ioos:station:SCCF:11:1,2019-10-08T07:00:00Z,26.4679,-82.0631,2.183,31.93,11111222 
SCCF RECON,ioos:station:SCCF:11:1,2019-10-08T08:00:00Z,26.4679,-82.0631,2.18,31.91,11111222 
SCCF RECON,ioos:station:SCCF:11:1,2019-10-08T09:00:00Z,26.4679,-82.0631,2.19,32.02,11111222 
SCCF RECON,ioos:station:SCCF:11:1,2019-10-08T10:00:00Z,26.4679,-82.0631,2.217,32.09,11111222 
SCCF RECON,ioos:station:SCCF:11:1,2019-10-08T11:00:00Z,26.4679,-82.0631,2.3,32.07,11111222 
SCCF RECON,ioos:station:SCCF:11:1,2019-10-08T12:00:00Z,26.4679,-82.0631,2.372,32.16,11111222 
SCCF RECON,ioos:station:SCCF:11:1,2019-10-08T13:00:00Z,26.4679,-82.0631,2.433,32.8,11111222 
SCCF RECON,ioos:station:SCCF:11:1,2019-10-08T14:00:00Z,26.4679,-82.0631,2.44,32.99,11111222 
SCCF RECON,ioos:station:SCCF:11:1,2019-10-08T15:00:00Z,26.4679,-82.0631,2.41,33.01,11111222 
SCCF RECON,ioos:station:SCCF:11:1,2019-10-08T16:00:00Z,26.4679,-82.0631,2.33,32.88,11111222 
SCCF RECON,ioos:station:SCCF:11:1,2019-10-08T17:00:00Z,26.4679,-82.0631,2.23,32.07,11111222 
SCCF RECON,ioos:station:SCCF:11:1,2019-10-08T18:00:00Z,26.4679,-82.0631,2.127,31.93,11111222 
SCCF RECON,ioos:station:SCCF:11:1,2019-10-08T19:00:00Z,26.4679,-82.0631,2.03,31.9,11111222 
SCCF RECON,ioos:station:SCCF:11:1,2019-10-08T20:00:00Z,26.4679,-82.0631,1.95,31.87,11111222 
SCCF RECON,ioos:station:SCCF:11:1,2019-10-08T21:00:00Z,26.4679,-82.0631,1.89,31.9,11111222 
SCCF RECON,ioos:station:SCCF:11:1,2019-10-08T22:00:00Z,26.4679,-82.0631,1.91,32.08,11111222 
SCCF RECON,ioos:station:SCCF:11:1,2019-10-08T23:00:00Z,26.4679,-82.0631,2.03,32.08,11111222 
SCCF RECON,ioos:station:SCCF:11:1,2019-10-09T04:00:00Z,26.4679,-82.0631,2.39,32.75,11111222 
SCCF RECON,ioos:station:SCCF:11:1,2019-10-09T05:00:00Z,26.4679,-82.0631,2.35,33.14,11111222 
SCCF RECON,ioos:station:SCCF:11:1,2019-10-09T06:00:00Z,26.4679,-82.0631,2.25,32.56,11111222 
SCCF RECON,ioos:station:SCCF:11:1,2019-10-09T07:00:00Z,26.4679,-82.0631,2.16,32.29,11111222 
SCCF RECON,ioos:station:SCCF:11:1,2019-10-09T08:00:00Z,26.4679,-82.0631,2.15,32.11,11111222 
SCCF RECON,ioos:station:SCCF:11:1,2019-10-09T09:00:00Z,26.4679,-82.0631,2.121,32.22,11111222 
SCCF RECON,ioos:station:SCCF:11:1,2019-10-09T10:00:00Z,26.4679,-82.0631,2.11,32.16,11111222 
SCCF RECON,ioos:station:SCCF:11:1,2019-10-09T11:00:00Z,26.4679,-82.0631,2.159,32.13,11111222 
SCCF RECON,ioos:station:SCCF:11:1,2019-10-09T12:00:00Z,26.4679,-82.0631,2.251,32.12,11111222 
SCCF RECON,ioos:station:SCCF:11:1,2019-10-09T13:00:00Z,26.4679,-82.0631,2.35,32.13,11111222 
SCCF RECON,ioos:station:SCCF:11:1,2019-10-09T14:00:00Z,26.4679,-82.0631,2.4,32.35,11111222 
SCCF RECON,ioos:station:SCCF:11:1,2019-10-09T15:00:00Z,26.4679,-82.0631,2.41,32.56,11111222 
SCCF RECON,ioos:station:SCCF:11:1,2019-10-09T16:00:00Z,26.4679,-82.0631,2.38,32.6,11111222 
SCCF RECON,ioos:station:SCCF:11:1,2019-10-09T17:00:00Z,26.4679,-82.0631,2.32,32.57,11111222 
SCCF RECON,ioos:station:SCCF:11:1,2019-10-09T18:00:00Z,26.4679,-82.0631,2.21,32.19,11111222 
SCCF RECON,ioos:station:SCCF:11:1,2019-10-09T19:00:00Z,26.4679,-82.0631,2.073,32.08,11111222 
SCCF RECON,ioos:station:SCCF:11:1,2019-10-09T20:00:00Z,26.4679,-82.0631,1.956,32.04,11111222 
SCCF RECON,ioos:station:SCCF:11:1,2019-10-09T21:00:00Z,26.4679,-82.0631,1.86,32.02,11111222 
SCCF RECON,ioos:station:SCCF:11:1,2019-10-09T22:00:00Z,26.4679,-82.0631,1.812,32.19,11111222 
SCCF RECON,ioos:station:SCCF:11:1,2019-10-09T23:00:00Z,26.4679,-82.0631,1.87,32.17,11111222 
SCCF RECON,ioos:station:SCCF:11:1,2019-10-10T04:00:00Z,26.4679,-82.0631,2.263,32.29,11111222 
SCCF RECON,ioos:station:SCCF:11:1,2019-10-10T05:00:00Z,26.4679,-82.0631,2.274,32.44,11111222 
SCCF RECON,ioos:station:SCCF:11:1,2019-10-10T06:00:00Z,26.4679,-82.0631,2.25,32.47,11111222 
SCCF RECON,ioos:station:SCCF:11:1,2019-10-10T07:00:00Z,26.4679,-82.0631,2.15,32.14,11111222 
SCCF RECON,ioos:station:SCCF:11:1,2019-10-10T08:00:00Z,26.4679,-82.0631,2.067,32.13,11111222 
SCCF RECON,ioos:station:SCCF:11:1,2019-10-10T09:00:00Z,26.4679,-82.0631,1.99,32.07,11111222 
SCCF RECON,ioos:station:SCCF:11:1,2019-10-10T10:00:00Z,26.4679,-82.0631,1.959,32.13,11111222 
SCCF RECON,ioos:station:SCCF:11:1,2019-10-10T11:00:00Z,26.4679,-82.0631,1.99,32.22,11111222 
SCCF RECON,ioos:station:SCCF:11:1,2019-10-10T12:00:00Z,26.4679,-82.0631,2.14,32.24,11111222 
SCCF RECON,ioos:station:SCCF:11:1,2019-10-10T13:00:00Z,26.4679,-82.0631,2.26,32.25,11111222 
SCCF RECON,ioos:station:SCCF:11:1,2019-10-10T14:00:00Z,26.4679,-82.0631,2.34,32.27,11111222 
SCCF RECON,ioos:station:SCCF:11:1,2019-10-10T15:00:00Z,26.4679,-82.0631,2.4,32.38,11111222 
SCCF RECON,ioos:station:SCCF:11:1,2019-10-10T16:00:00Z,26.4679,-82.0631,2.4,32.43,11111222 
SCCF RECON,ioos:station:SCCF:11:1,2019-10-10T17:00:00Z,26.4679,-82.0631,2.35,32.41,11111222 
SCCF RECON,ioos:station:SCCF:11:1,2019-10-10T18:00:00Z,26.4679,-82.0631,2.233,32.17,11111222 
SCCF RECON,ioos:station:SCCF:11:1,2019-10-10T19:00:00Z,26.4679,-82.0631,2.12,32.15,11111222 
SCCF RECON,ioos:station:SCCF:11:1,2019-10-10T20:00:00Z,26.4679,-82.0631,2.009,32.11,11111222 
SCCF RECON,ioos:station:SCCF:11:1,2019-10-10T21:00:00Z,26.4679,-82.0631,1.917,32.12,11111222 
SCCF RECON,ioos:station:SCCF:11:1,2019-10-10T22:00:00Z,26.4679,-82.0631,1.83,32.1,11111222 
SCCF RECON,ioos:station:SCCF:11:1,2019-10-10T23:00:00Z,26.4679,-82.0631,1.83,32.29,11111222 
SCCF RECON,ioos:station:SCCF:11:1,2019-10-11T04:00:00Z,26.4679,-82.0631,2.334,32.31,11111222 
SCCF RECON,ioos:station:SCCF:11:1,2019-10-11T05:00:00Z,26.4679,-82.0631,2.333,32.36,11111222 
SCCF RECON,ioos:station:SCCF:11:1,2019-10-11T06:00:00Z,26.4679,-82.0631,2.278,32.3,11111222 
SCCF RECON,ioos:station:SCCF:11:1,2019-10-11T07:00:00Z,26.4679,-82.0631,2.139,32.19,11111222 
SCCF RECON,ioos:station:SCCF:11:1,2019-10-11T08:00:00Z,26.4679,-82.0631,2.05,32.1,11111222 
SCCF RECON,ioos:station:SCCF:11:1,2019-10-11T09:00:00Z,26.4679,-82.0631,2.0,32.16,11111222 
SCCF RECON,ioos:station:SCCF:11:1,2019-10-11T10:00:00Z,26.4679,-82.0631,1.92,32.11,11111222 
SCCF RECON,ioos:station:SCCF:11:1,2019-10-11T11:00:00Z,26.4679,-82.0631,1.89,32.26,11111222 
SCCF RECON,ioos:station:SCCF:11:1,2019-10-11T12:00:00Z,26.4679,-82.0631,1.99,32.25,11111222 
SCCF RECON,ioos:station:SCCF:11:1,2019-10-11T13:00:00Z,26.4679,-82.0631,2.16,32.25,11111222 
SCCF RECON,ioos:station:SCCF:11:1,2019-10-11T14:00:00Z,26.4679,-82.0631,2.278,32.14,11111222 
SCCF RECON,ioos:station:SCCF:11:1,2019-10-11T15:00:00Z,26.4679,-82.0631,2.342,32.07,11111222 
SCCF RECON,ioos:station:SCCF:11:1,2019-10-11T16:00:00Z,26.4679,-82.0631,2.388,32.05,11111222 
SCCF RECON,ioos:station:SCCF:11:1,2019-10-11T17:00:00Z,26.4679,-82.0631,2.39,32.24,11111222 
SCCF RECON,ioos:station:SCCF:11:1,2019-10-11T18:00:00Z,26.4679,-82.0631,2.332,32.16,11111222 
SCCF RECON,ioos:station:SCCF:11:1,2019-10-11T19:00:00Z,26.4679,-82.0631,2.201,32.18,11111222 
SCCF RECON,ioos:station:SCCF:11:1,2019-10-11T20:00:00Z,26.4679,-82.0631,2.08,32.17,11111222 
SCCF RECON,ioos:station:SCCF:11:1,2019-10-11T21:00:00Z,26.4679,-82.0631,1.969,32.14,11111222 
SCCF RECON,ioos:station:SCCF:11:1,2019-10-11T22:00:00Z,26.4679,-82.0631,1.89,32.14,11111222 
SCCF RECON,ioos:station:SCCF:11:1,2019-10-11T23:00:00Z,26.4679,-82.0631,1.875,32.17,11111222 
SCCF RECON,ioos:station:SCCF:11:1,2019-10-12T04:00:00Z,26.4679,-82.0631,2.37,32.2,11111222 
SCCF RECON,ioos:station:SCCF:11:1,2019-10-12T05:00:00Z,26.4679,-82.0631,2.38,32.24,11111222 
SCCF RECON,ioos:station:SCCF:11:1,2019-10-12T06:00:00Z,26.4679,-82.0631,2.32,32.23,11111222 
SCCF RECON,ioos:station:SCCF:11:1,2019-10-12T07:00:00Z,26.4679,-82.0631,2.175,32.14,11111222 
SCCF RECON,ioos:station:SCCF:11:1,2019-10-12T08:00:00Z,26.4679,-82.0631,2.056,32.15,11111222 
SCCF RECON,ioos:station:SCCF:11:1,2019-10-12T09:00:00Z,26.4679,-82.0631,1.96,32.17,11111222 
SCCF RECON,ioos:station:SCCF:11:1,2019-10-12T10:00:00Z,26.4679,-82.0631,1.89,32.19,11111222 
SCCF RECON,ioos:station:SCCF:11:1,2019-10-12T11:00:00Z,26.4679,-82.0631,1.84,32.18,11111222 
SCCF RECON,ioos:station:SCCF:11:1,2019-10-12T12:00:00Z,26.4679,-82.0631,1.875,32.02,11111222 
SCCF RECON,ioos:station:SCCF:11:1,2019-10-12T13:00:00Z,26.4679,-82.0631,2.04,31.99,11111222 
SCCF RECON,ioos:station:SCCF:11:1,2019-10-12T14:00:00Z,26.4679,-82.0631,2.224,32.08,11111222 
SCCF RECON,ioos:station:SCCF:11:1,2019-10-12T15:00:00Z,26.4679,-82.0631,2.332,31.97,11111222 
SCCF RECON,ioos:station:SCCF:11:1,2019-10-12T16:00:00Z,26.4679,-82.0631,2.407,31.95,11111222 
SCCF RECON,ioos:station:SCCF:11:1,2019-10-12T17:00:00Z,26.4679,-82.0631,2.432,32.15,11111222 
SCCF RECON,ioos:station:SCCF:11:1,2019-10-12T18:00:00Z,26.4679,-82.0631,2.39,32.25,11111222 
SCCF RECON,ioos:station:SCCF:11:1,2019-10-12T19:00:00Z,26.4679,-82.0631,2.274,32.06,11111222 
SCCF RECON,ioos:station:SCCF:11:1,2019-10-12T20:00:00Z,26.4679,-82.0631,2.149,32.07,11111222 
SCCF RECON,ioos:station:SCCF:11:1,2019-10-12T21:00:00Z,26.4679,-82.0631,2.044,32.1,11111222 
SCCF RECON,ioos:station:SCCF:11:1,2019-10-12T22:00:00Z,26.4679,-82.0631,1.969,32.12,11111222 
SCCF RECON,ioos:station:SCCF:11:1,2019-10-12T23:00:00Z,26.4679,-82.0631,1.89,32.13,11111222 
SCCF RECON,ioos:station:SCCF:11:1,2019-10-13T04:00:00Z,26.4679,-82.0631,2.35,31.93,11111222 
SCCF RECON,ioos:station:SCCF:11:1,2019-10-13T05:00:00Z,26.4679,-82.0631,2.4,32.09,11111222 
SCCF RECON,ioos:station:SCCF:11:1,2019-10-13T06:00:00Z,26.4679,-82.0631,2.37,32.13,11111222 
SCCF RECON,ioos:station:SCCF:11:1,2019-10-13T07:00:00Z,26.4679,-82.0631,2.25,32.02,11111222 
SCCF RECON,ioos:station:SCCF:11:1,2019-10-13T08:00:00Z,26.4679,-82.0631,2.108,32.07,11111222 
SCCF RECON,ioos:station:SCCF:11:1,2019-10-13T09:00:00Z,26.4679,-82.0631,1.97,32.09,11111222 
SCCF RECON,ioos:station:SCCF:11:1,2019-10-13T10:00:00Z,26.4679,-82.0631,1.869,32.13,11111222 
SCCF RECON,ioos:station:SCCF:11:1,2019-10-13T11:00:00Z,26.4679,-82.0631,1.791,32.16,11111222 
SCCF RECON,ioos:station:SCCF:11:1,2019-10-13T12:00:00Z,26.4679,-82.0631,1.8,31.97,11111222 
SCCF RECON,ioos:station:SCCF:11:1,2019-10-13T13:00:00Z,26.4679,-82.0631,1.94,31.98,11111222 
SCCF RECON,ioos:station:SCCF:11:1,2019-10-13T14:00:00Z,26.4679,-82.0631,2.132,32.04,11111222 
SCCF RECON,ioos:station:SCCF:11:1,2019-10-13T15:00:00Z,26.4679,-82.0631,2.282,32.04,11111222 
SCCF RECON,ioos:station:SCCF:11:1,2019-10-13T16:00:00Z,26.4679,-82.0631,2.399,32.13,11111222 
SCCF RECON,ioos:station:SCCF:11:1,2019-10-13T17:00:00Z,26.4679,-82.0631,2.459,32.38,11111222 
SCCF RECON,ioos:station:SCCF:11:1,2019-10-13T18:00:00Z,26.4679,-82.0631,2.457,32.53,11111222 
SCCF RECON,ioos:station:SCCF:11:1,2019-10-13T19:00:00Z,26.4679,-82.0631,2.404,33.47,11111222 
SCCF RECON,ioos:station:SCCF:11:1,2019-10-13T20:00:00Z,26.4679,-82.0631,2.304,32.38,11111222 